Stündliche Wetter Labedz

Heute, 8 Mai, Samstag

Zeit Temperatur Niederschläge Wind Luftdruck Luftfeuchtigkeit
00:00 +1°C° 0 mm 5 m/S 740 mmHg 89%
01:00 +1°C° 0 mm 5 m/S 740 mmHg 90%
02:00 +1°C° 0 mm 5 m/S 740 mmHg 91%
03:00 +1°C° 0 mm 5 m/S 741 mmHg 91%
04:00 +1°C° 0 mm 5 m/S 741 mmHg 91%
05:00 +2°C° 0 mm 5 m/S 741 mmHg 86%
06:00 +2°C° 0 mm 5 m/S 742 mmHg 81%
07:00 +3°C° 0 mm 5 m/S 742 mmHg 76%
08:00 +5°C° 0.2 mm 6 m/S 742 mmHg 70%
09:00 +7°C° 0.2 mm 6 m/S 742 mmHg 63%
10:00 +8°C° 0.2 mm 7 m/S 742 mmHg 57%
11:00 +9°C° 0 mm 7 m/S 742 mmHg 53%
12:00 +9°C° 0 mm 6 m/S 742 mmHg 50%
13:00 +10°C° 0 mm 6 m/S 742 mmHg 47%
14:00 +10°C° 0 mm 6 m/S 742 mmHg 48%
15:00 +10°C° 0 mm 5 m/S 742 mmHg 48%
16:00 +10°C° 0 mm 5 m/S 743 mmHg 49%
17:00 +10°C° 0.1 mm 4 m/S 743 mmHg 58%
18:00 +8°C° 0.1 mm 3 m/S 743 mmHg 68%
19:00 +8°C° 0.1 mm 1 m/S 743 mmHg 77%
20:00 +7°C° 0 mm 1 m/S 743 mmHg 78%
21:00 +6°C° 0 mm 2 m/S 743 mmHg 79%
22:00 +5°C° 0 mm 2 m/S 744 mmHg 80%
23:00 +5°C° 0 mm 2 m/S 744 mmHg 80%

Morgen, 9 Mai, Sonntag

Zeit Temperatur Niederschläge Wind Luftdruck Luftfeuchtigkeit
00:00 +5°C° 0 mm 2 m/S 744 mmHg 80%
01:00 +4°C° 0 mm 2 m/S 744 mmHg 81%
02:00 +4°C° 0 mm 2 m/S 744 mmHg 81%
03:00 +3°C° 0 mm 3 m/S 743 mmHg 81%
04:00 +3°C° 0 mm 3 m/S 743 mmHg 81%
05:00 +5°C° 0 mm 3 m/S 743 mmHg 75%
06:00 +7°C° 0 mm 4 m/S 743 mmHg 68%
07:00 +10°C° 0 mm 4 m/S 743 mmHg 62%
08:00 +10°C° 0 mm 5 m/S 743 mmHg 58%
09:00 +13°C° 0 mm 5 m/S 743 mmHg 53%
10:00 +15°C° 0 mm 6 m/S 743 mmHg 49%
11:00 +16°C° 0 mm 5 m/S 743 mmHg 47%
12:00 +17°C° 0 mm 5 m/S 742 mmHg 46%
13:00 +19°C° 0 mm 5 m/S 742 mmHg 45%
14:00 +20°C° 0 mm 4 m/S 742 mmHg 46%
15:00 +20°C° 0 mm 4 m/S 742 mmHg 47%
16:00 +20°C° 0 mm 3 m/S 741 mmHg 49%
17:00 +19°C° 0 mm 3 m/S 741 mmHg 56%
18:00 +17°C° 0 mm 3 m/S 741 mmHg 64%
19:00 +14°C° 0 mm 3 m/S 741 mmHg 71%
20:00 +13°C° 0 mm 3 m/S 741 mmHg 73%
21:00 +12°C° 0 mm 3 m/S 741 mmHg 75%
22:00 +11°C° 0 mm 3 m/S 741 mmHg 76%
23:00 +10°C° 0 mm 3 m/S 741 mmHg 77%

übermorgen, 10 Mai, Montag

Zeit Temperatur Niederschläge Wind Luftdruck Luftfeuchtigkeit
00:00 +10°C° 0 mm 3 m/S 741 mmHg 78%
01:00 +9°C° 0 mm 3 m/S 741 mmHg 78%
02:00 +9°C° 0 mm 3 m/S 741 mmHg 79%
03:00 +8°C° 0 mm 3 m/S 740 mmHg 79%
04:00 +8°C° 0 mm 3 m/S 740 mmHg 80%
05:00 +8°C° 0 mm 4 m/S 740 mmHg 76%
06:00 +11°C° 0 mm 4 m/S 740 mmHg 72%
07:00 +13°C° 0 mm 4 m/S 740 mmHg 68%
08:00 +15°C° 0 mm 4 m/S 740 mmHg 62%
09:00 +17°C° 0 mm 5 m/S 740 mmHg 57%
10:00 +20°C° 0 mm 5 m/S 740 mmHg 52%
11:00 +21°C° 0 mm 5 m/S 739 mmHg 49%
12:00 +22°C° 0 mm 5 m/S 739 mmHg 47%
13:00 +25°C° 0 mm 5 m/S 739 mmHg 44%
14:00 +25°C° 0 mm 5 m/S 739 mmHg 47%
15:00 +25°C° 0 mm 4 m/S 739 mmHg 49%
16:00 +25°C° 0 mm 4 m/S 739 mmHg 52%
17:00 +22°C° 0 mm 3 m/S 739 mmHg 60%
18:00 +20°C° 0 mm 2 m/S 739 mmHg 67%
19:00 +19°C° 0 mm 1 m/S 739 mmHg 75%
20:00 +17°C° 0 mm 2 m/S 739 mmHg 78%
21:00 +16°C° 0 mm 2 m/S 739 mmHg 81%
22:00 +14°C° 0 mm 3 m/S 739 mmHg 83%
23:00 +13°C° 0 mm 3 m/S 739 mmHg 83%

11 Mai, Dienstag

Zeit Temperatur Niederschläge Wind Luftdruck Luftfeuchtigkeit
00:00 +13°C° 0 mm 3 m/S 739 mmHg 83%
01:00 +13°C° 0 mm 3 m/S 739 mmHg 84%
02:00 +12°C° 0 mm 3 m/S 738 mmHg 85%
03:00 +12°C° 0 mm 4 m/S 738 mmHg 86%
04:00 +11°C° 0 mm 4 m/S 737 mmHg 87%
05:00 +13°C° 0 mm 4 m/S 737 mmHg 82%
06:00 +15°C° 0 mm 5 m/S 737 mmHg 78%
07:00 +16°C° 0 mm 5 m/S 737 mmHg 73%
08:00 +19°C° 0 mm 5 m/S 737 mmHg 67%
09:00 +21°C° 0 mm 5 m/S 737 mmHg 60%
10:00 +23°C° 0 mm 5 m/S 737 mmHg 54%
11:00 +25°C° 0 mm 5 m/S 737 mmHg 52%
12:00 +26°C° 0 mm 5 m/S 737 mmHg 49%
13:00 +27°C° 0 mm 5 m/S 737 mmHg 47%
14:00 +27°C° 0 mm 5 m/S 737 mmHg 50%
15:00 +27°C° 0 mm 5 m/S 736 mmHg 54%
16:00 +26°C° 0 mm 6 m/S 736 mmHg 58%
17:00 +23°C° 0 mm 6 m/S 736 mmHg 63%
18:00 +21°C° 0 mm 6 m/S 736 mmHg 69%
19:00 +20°C° 0 mm 6 m/S 735 mmHg 75%
20:00 +17°C° 0 mm 6 m/S 735 mmHg 77%
21:00 +16°C° 0 mm 5 m/S 736 mmHg 80%
22:00 +15°C° 0 mm 5 m/S 736 mmHg 82%
23:00 +14°C° 0 mm 5 m/S 735 mmHg 83%

12 Mai, Mittwoch

Zeit Temperatur Niederschläge Wind Luftdruck Luftfeuchtigkeit
00:00 +13°C° 0 mm 4 m/S 735 mmHg 83%
01:00 +12°C° 0 mm 4 m/S 735 mmHg 83%
02:00 +12°C° 0 mm 4 m/S 735 mmHg 84%
03:00 +11°C° 0 mm 3 m/S 735 mmHg 85%
04:00 +11°C° 0 mm 3 m/S 734 mmHg 85%
05:00 +12°C° 0 mm 4 m/S 734 mmHg 81%
06:00 +13°C° 0 mm 4 m/S 734 mmHg 77%
07:00 +14°C° 0 mm 5 m/S 734 mmHg 73%
08:00 +16°C° 0 mm 5 m/S 734 mmHg 69%
09:00 +19°C° 0 mm 5 m/S 734 mmHg 66%
10:00 +21°C° 0 mm 5 m/S 734 mmHg 62%
11:00 +21°C° 0 mm 6 m/S 734 mmHg 60%
12:00 +22°C° 0 mm 6 m/S 734 mmHg 57%
13:00 +22°C° 0 mm 7 m/S 734 mmHg 54%
14:00 +22°C° 0 mm 7 m/S 733 mmHg 57%
15:00 +22°C° 0 mm 7 m/S 733 mmHg 59%
16:00 +21°C° 0 mm 7 m/S 733 mmHg 61%
17:00 +20°C° 0 mm 7 m/S 733 mmHg 62%
18:00 +17°C° 0 mm 7 m/S 733 mmHg 63%
19:00 +15°C° 0 mm 7 m/S 733 mmHg 64%
20:00 +14°C° 0 mm 6 m/S 733 mmHg 69%
21:00 +13°C° 0 mm 6 m/S 733 mmHg 73%
22:00 +11°C° 0 mm 6 m/S 733 mmHg 77%
23:00 +10°C° 0 mm 6 m/S 733 mmHg 78%

13 Mai, Donnerstag

Zeit Temperatur Niederschläge Wind Luftdruck Luftfeuchtigkeit
00:00 +9°C° 0 mm 5 m/S 733 mmHg 80%
01:00 +8°C° 0 mm 5 m/S 733 mmHg 81%
02:00 +8°C° 0 mm 5 m/S 733 mmHg 82%
03:00 +7°C° 0 mm 4 m/S 733 mmHg 84%
04:00 +7°C° 0 mm 4 m/S 733 mmHg 86%
05:00 +8°C° 0 mm 5 m/S 733 mmHg 82%
06:00 +9°C° 0 mm 5 m/S 733 mmHg 78%
07:00 +10°C° 0 mm 5 m/S 733 mmHg 75%
08:00 +12°C° 0 mm 5 m/S 733 mmHg 68%
09:00 +13°C° 0 mm 6 m/S 733 mmHg 62%
10:00 +15°C° 0 mm 6 m/S 733 mmHg 56%
11:00 +14°C° 0 mm 5 m/S 733 mmHg 57%
12:00 +14°C° 0 mm 5 m/S 733 mmHg 58%
13:00 +14°C° 0 mm 5 m/S 733 mmHg 59%
14:00 +13°C° 0 mm 4 m/S 733 mmHg 61%
15:00 +13°C° 0 mm 4 m/S 733 mmHg 62%
16:00 +13°C° 0 mm 3 m/S 733 mmHg 63%
17:00 +12°C° 0 mm 3 m/S 733 mmHg 66%
18:00 +13°C° 0 mm 2 m/S 733 mmHg 69%
19:00 +12°C° 0 mm 1 m/S 733 mmHg 73%
20:00 +11°C° 0 mm 1 m/S 733 mmHg 74%
21:00 +11°C° 0 mm 1 m/S 733 mmHg 76%
22:00 +9°C° 0 mm 0 m/S 733 mmHg 77%
23:00 +9°C° 0 mm 0 m/S 733 mmHg 78%
Mehr zeigen

Wir brauchen deine Erlaubnis

Meteoprog und unser Service Anbieter werden persönliche Daten aufbewahren, so wie Cookies, Geräte Bezeichnung oder ähnliche Technologien von deinem Gerät und Prozess, so wie Persönliche Daten Inhalte und Werbungen, genauso wie social Media und den Verkehr zu analysieren.

  • Aufbewahrung und/oder Zugang zu deiner Geräte Informationen.

    Cookies, Geräte Bezeichnung oder andere Informationen, können aufbewahrt oder Zugang zu deinem Gerät erhalten, für den Grund, der oben angegeben wird.

  • Personalisierte Werbung und Inhalte, Messungen, Einblick in das Publikum und Produkt Entwicklung.

    Werbungen und Inhalte können personalisiert werden, basierend auf ein Profil. Mehr Daten können besser personalisierte Werbungen und Inhalte hinzufügen. Werbung und Inhalte können gezeigt und gemessen werden. Einblicke über das Publikum, welche die Werbung gesehen haben und den Inhalt, können abgeleitet werden. So wie Daten können genutzt werden, um es zu verbessern oder die Benutzer Erfahrung zu verbessern das System und die Software.

Wenn du “Ich stimme zu” klickst, erlaubst du uns, die Cookies zu benutzen die Geräte Bezeichnung, den Web oder ähnliche Technologien zu benutzen. Deine Settings, können in deinem Gerät bei deinem Browser geändert werden.

Für den bestimmten Zweck, berechtigten Interessen beruhen darauf, mehr als auf den Inhalt. Du kannst mehr darüber in unseren Privaten und Cookie Politik lesen.